User: anonymous   Login
Location: Unspecified
(0.0000°N, 0.0000°E)
Time: 06:39:08
(UTC+00:00)
Language:

FLOCK 4Q 28 - Orbit

View from above orbital plane
View from above orbital plane
View from above satellite
View from above satellite

Ground track
Ground track

The orbit is defined by the following mean orbital elements,

1 58280U          26145.58043207 +.00000000 +00000-0 +41541-3 0 00001
2 58280  97.3882 236.0550 0005276 208.8443 151.2519 15.53373694    02
Epoch (UTC): 25 May 2026 13:55:49
Eccentricity: 0.0005276
inclination: 97.3882°
perigee height: 403 km
apogee height: 410 km
right ascension of ascending node: 236.0550°
argument of perigee: 208.8443°
revolutions per day: 15.53373694
mean anomaly at epoch: 151.2519°

The dashed part of the orbit path shows where the satellite is in the earth's shadow,  

DLR